Regional Weather Roundup
Issued by NWS Upton, NY

Current Version | Previous Version | Text Only | Print | Product List | Glossary On
Versions: 1 2 3 4 5 6 7 8 9 10 11 12 13 14 15 16 17 18 19 20 21 22 23 24 25 26 27 28 29 30 31 32 33 34 35 36 37 38 39 40 41 42 43 44 45 46 47 48 49 50
000
ASUS41 KOKX 211914
RWROKX

Regional Weather Roundup
National Weather Service New York NY
300 PM EDT WED OCT 21 2020

Note: "FAIR" indicates few or no clouds below 12,000 feet with no
significant weather and/or obstructions to visibility.

NYZ071-072-176-178-NJZ106-104-212000-
New York City Metro Area

CITY           SKY/WX    TMP DP  RH WIND       PRES   REMARKS
Central Park   MOSUNNY   68  63  84 VRB3      30.24F
Bronx Lehman C   N/A     70  63  78 S5          N/A
LaGuardia Arpt PTSUNNY   70  62  76 S6        30.21F
Queens College   N/A     68  63  83 S7          N/A
Kennedy Intl   PTSUNNY   67  63  87 SE7       30.23F
Breezy Point     N/A     63 N/A N/A SE7         N/A
Brooklyn Coll    N/A     66  63  88 SE8         N/A
Staten Island    N/A     70  64  83 E5          N/A
Newark/Liberty PTSUNNY   68  62  81 E5        30.22F
Teterboro      PTSUNNY   69  63  81 SW8       30.20F
$$

NYZ177-179-078>081-212000-
Long Island New York

CITY           SKY/WX    TMP DP  RH WIND       PRES   REMARKS
Jones Beach      N/A     64 N/A N/A S5          N/A
Wantagh          N/A     64  64 100 S6          N/A
Hempstead      NOT AVBL
Matinecock Pt    N/A     64 N/A N/A NE3         N/A
Farmingdale    CLOUDY    68  63  84 S9        30.23F
MacArthur/ISP  CLOUDY    68  65  90 S8        30.23F
Shirley        CLOUDY    69  63  81 SW9       30.24F
Mt Sinai Harb    N/A     68 N/A N/A NE2         N/A
Westhampton    CLOUDY    65  64  97 S6        30.26F FOG
East Hampton   CLOUDY    65  65  98 S6        30.24F
Southold       NOT AVBL
Montauk          N/A     67  65  93 VRB3      30.25F
$$

NYZ052-065-067-212000-
Hudson Valley

CITY           SKY/WX    TMP DP  RH WIND       PRES   REMARKS
White Plains   CLOUDY    66  61  84 S7        30.22F
Larchmont Harb   N/A     64 N/A N/A MISG        N/A
Croton On Huds   N/A     66 N/A N/A S2          N/A
Somers           N/A     66  63  88 SE6         N/A
Brewster         N/A     66  63  88 S5          N/A
Newburgh       NOT AVBL
Montgomery     CLOUDY    68  62  81 S13       30.18F
Otisville        N/A     66  63  88 SW9         N/A
Warwick          N/A     68  64  88 S5          N/A
Suffern          N/A     66  63  88 S3          N/A
Poughkeepsie   CLOUDY    69  61  75 VRB7      30.18F
Albany         MOSUNNY   70  60  70 S15G26    30.12F
$$

NJZ001-105-106-008-010-013-015-019>022-104-212000-
New Jersey

CITY           SKY/WX    TMP DP  RH WIND       PRES   REMARKS
Newark/Liberty PTSUNNY   68  62  81 E5        30.22F
Teterboro      PTSUNNY   69  63  81 SW8       30.20F
Caldwell       CLOUDY    69  63  81 S7        30.21F
Somerville     CLOUDY    66  64  93 CALM      30.20F
Linden         NOT AVBL
Perth Amboy      N/A     66 N/A N/A NE2         N/A
Sussex         CLOUDY    68  62  81 SW3       30.21F
Andover          N/A     66  62  87 S3        30.22F
Trenton        CLOUDY    70  66  87 CALM      30.21F
Millville      SUNNY     75  66  73 VRB6      30.21F
Atlantic City  SUNNY     73  66  78 S9        30.22F
Wrightstown    MOSUNNY   80  65  60 S14       30.21
Toms River     MOSUNNY   77  67  71 S7        30.22F
Belmar         MOSUNNY   73  67  81 S6        30.23F
$$

PAZ047>061-062-071-212000-
Eastern Pennsylvania

CITY           SKY/WX    TMP DP  RH WIND       PRES   REMARKS
Philadelphia   MOSUNNY   74  66  76 W9        30.21F
Allentown      CLOUDY    67  62  84 SW7       30.21F
Scranton       SUNNY     74  59  59 S12G18    30.17F
$$

CTZ002-004>006-009-010-012-RIZ004-006-007-MAZ004-011-015-212000-
Southern New England

 In CT

CITY           SKY/WX    TMP DP  RH WIND       PRES   REMARKS
Bradley Intl   MOSUNNY   73  60  63 S15       30.20F
Hartford       CLOUDY    72  60  66 SW7       30.21F
Danbury        CLOUDY    67  62  84 S6        30.23F
Wtrbury/Oxford CLOUDY    65  62  90 S8        30.24F
Norwalk Harbor   N/A     63 N/A N/A NE3         N/A
Bridgeport     SUNNY     70  62  76 VRB3      30.22F
Meriden        CLOUDY    69  60  73 S10       30.22F
New Haven      MOSUNNY   70  64  81 W6        30.22F
Chester        NOT AVBL
Groton         FOG       64  62  93 S3        30.24F VSB 1
Willimantic    PTSUNNY   75  60  59 VRB7      30.21F

 In RI

CITY           SKY/WX    TMP DP  RH WIND       PRES   REMARKS
Providence     MOSUNNY   70  64  83 SE9       30.23F
Block Island   CLOUDY    64  63  96 SW7       30.26F
Westerly       CLOUDY    66  61  84 S5        30.25F

In MA

CITY           SKY/WX    TMP DP  RH WIND       PRES   REMARKS
Boston         PTSUNNY   60  57  89 E6        30.23F
Worcester      CLOUDY    70  58  65 SW9       30.22F
Westfield      PTSUNNY   71  62  73 S10       30.19F
Provincetown   CLOUDY    66  64  93 SW9       30.25F
Nantucket      SUNNY     68  64  87 SW7       30.26F
$$

ANZ330-335-338-340-345-350-353-355-212000-
Coastal Marine Observations


STATION/POSITION TIME  SKY/WX   TEMP    WIND        PRES    VSBY  WAVE
                                AIR SEA DIR/SP/G                  HT/PER
                 (UTC)          (F)     (DEG/KT/KT) (MB)    (MI)  (FT/S)
NY Harb Entrance 1850               62  150/  6/  8 1023.2          3/10
20 S Fire Island 1850               64  170/  6/  6 1023.5          3/ 9
Great South Bay  1830            64     140/  4/  4   N/A
23 SSW Montauk P 1850            64 63  210/  6/  8 1024.5          3/10
15 E Barnegat Li 1856               65                N/A           3/ 9
Hudson Canyon    1850               65              1025.4          4/ 9
Kings Point      1830            66     200/  9/ 10 1024.4
Execution Rocks  1845            67     190/  4/  8   N/A
Western LI Sound NOT AVBL
Central LI Sound NOT AVBL
Robbins Reef     1830            63     180/ 10/ 11 1023.5
$$


>>>>>>>>>>>>>>>>>>>>>>>>>>>> KEY <<<<<<<<<<<<<<<<<<<<<<<<<<<
>                                                          <
>     SKY/WX - Sky Condition/Present Weather               <
>     TMP    - Temperature in Fahrenheit                   <
>     DP     - Dew Point in Fahrenheit                     <
>     RH     - Relative Humidity in Percent                <
>     WIND   - Direction (from) and Speed in MPH           <
>     PRES   - Mean Sea Level Pressure (inches of Hg)      <
>     WCI    - Wind Chill Index                            <
>     VSB    - Visibility in Miles                         <
>     HX     - Heat Index                                  <
>     TC     - Temperature in Celsius                      <
>     VRB    - Variable Wind Direction                     <
>                                                          <
>>>>>>>>>>>>>>>>>>>>>>>>>>>> KEY <<<<<<<<<<<<<<<<<<<<<<<<<<<



USA.gov is the U.S. government's official web portal to all federal, state and local government web resources and services.